Zurück zum Katalog

DELTA 1 DEB

AktivSSO
NORAD 37657·DEBRIS·🇺🇸 United States

Gestartet Mar 5, 1978 von Vandenberg Space Force Base

Loading…

Nächste Überflüge (nächste 24 Stunden)

TLE

AktuellSource: Space-Track

Epoche: Sep 11, 2026, 09:10 UTC

1 37657U 78026JU  26254.38242443  .00000559  00000-0  21425-3 0  9996
2 37657  98.7193 293.6599 0023222  62.4873 297.8668 14.34337194131854

Verfolge DELTA 1 DEB in Echtzeit mit AllMySat

Download on the App Store